Location: Bennemühlen
(52.5740°N, 9.7135°E)
Time: 16:26:57
(UTC+00:00)

Cosmos 1633 Rocket - Pass Details

Date: 19 May 2025
Orbit: 600 x 618 km, 82.5° (Epoch: 17 June)

Event Time Altitude Azimuth Distance (km) Brightness Sun altitude
Rises 22:52:06 0° 354° (N) 2,887 8.3 -17.2°
Reaches altitude 10° 22:54:29 10° 3° (N) 1,974 6.9 -17.3°
Maximum altitude 22:58:33 37° 71° (ENE) 960 4.1 -17.3°
Enters shadow 23:00:50 21° 125° (SE) 1,367 4.5 -17.4°
